Погода в Кагуле

Погода в Кагуле : погода сейчас, прогноз погоды и архив. Всё, что Вы хотите узнать о погоде в Кагуле!

Поиск расширенной информации на нашем сайте:

Другие новости

Новости СМИ2

Главная страница сайта

Новости сайта

02.10.2013

Напоминаем, что на нашем новом сайте вы можете получить высокодетализированные прогнозы погоды по пунктам России, СНГ и мира (включающие важные для авиации метеовеличины, такие как направление и скорость ветра, видимость, явления погоды, количество и форма облачности, нижняя и верхняя граница облачности), а также ознакомиться с разнообразными материалами по авиационной метеорологии и подборкой полезных ссылок на эту тему.

Сайт Метеоцентр.Азия посвящён разработке технологий оптимизации авиаметеорологического обслуживания, включая проектирование и перспективное создание нескольких автоматизированных авиаметеорологических систем:
- система выпуска высокодетальных прогностических карт явлений погоды для нижнего воздушного пространства по России и ближнему зарубежью;
- система верификации прогнозов TAF (выпускаемых синоптиками официальных АМСГ РФ и ближнего зарубежья) и AUTOTAF (выпускаемых сайтом Метеоцентр.Азия) - выявление ошибок, онлайн-сопоставление с фактической погодой METAR, автоматическое внесение коррективов в прогнозы при резком отклонении фактической погоды от прогноза, подсчёт оправдываемости прогнозов по элементам и в целом;
- система обработки, анализа и отображения авиаметеорологической информации для применения провайдерами метеорологической информации.


Погода в Кагуле - сегодня

Время (UTC), дата Ветер
(°,м/с) 
Видим.   Явления Облачность Т
(°С)
Тd
(°С)
f(%) Тe
(°С)
Pmin
(гПа)
dP
(гПа)
Po
(мм)
O2
(г/м3)
Тmin Tmax R s Состояние
почвы
03 21.01.17 200 (Ю) 4000 м  дымка  10/0 средняя 
[Ac und]
-10.5 -11.4 93 -15  1032.1  -0.9  763  321           
06 21.01.17 210 (ЮЗ) 2000 м  дымка  10/10 600 м 
[Sc]
-10.8 -11.3 96 -15  1031.9  -0.2  762  321  -11.3      мокрый или
старый снег
50-90% 
09 21.01.17 210 (ЮЗ) 4000 м  в посл. час снег  10/0 средняя 
[As op]
-7.8 -8.6 94 -11  1031.8  0.1  763  317           
12 21.01.17 210 (ЮЗ) 4000 м  дымка{снег}  10/0 средняя 
[As op]
-4.9 -7.2 84 -7  1030.7  -1  762  313           
15 21.01.17 200 (Ю) 4000 м  дымка  10/0 средняя 
[Ac und]
-4.3 -6 88 -6  1030.8  0.2  762  313           
18 21.01.17 210 (ЮЗ) 4000 м  дымка  10/10 600 м 
[Sc]
-3 -4.6 89 -4  1031.5  0.7  762  311    -2.8  0.0     
21 21.01.17 190 (Ю) 4000 м  дымка  10/10 600 м 
[Sc]
-2.6 -4 90 -5  1032.9  1.4  764  311           
00 22.01.17 180 (Ю) 4000 м  дымка  10/10 600 м 
[Sc]
-2.2 -3.9 88 -2  1033.8  764  311           
03 22.01.17 200 (Ю) 4000 м  дымка  10/10 600 м 
[Sc]
-2.4 -3.1 95 -2  1034.5  0.6  765  311           
06 22.01.17 тихо ()   2000 м  в посл. час снег  10/10 100 м 
[St]
-1.3 -1.4 99 -1  1035.5  1.1  766  310  -3.1    0.2  неравномерный
сухой снег
100% 
09 22.01.17 тихо ()   1000 м  дымка  10/10 300 м 
[St]
+0.6 +0.2 97 +1  1036.6  1.2  766  308           
12 22.01.17 350 (С) 2000 м  дымка  10/10 300 м 
[Sc]
+1.5 +0.3 92 +2  1035.9  -0.7  766  307           
15 22.01.17 тихо ()   10 км    10/10 600 м 
[Sc]
+1.3 +0 91 +1  1036  0.1  766  307           
18 22.01.17 тихо ()   10 км    10/10 600 м 
[Sc]
+1.2 -0.9 86 +1  1036  766  307    +1.9       
21 22.01.17 тихо ()   10 км    10/0 средняя 
[Ac und]
+1 -1.9 81 +1  1036  766  308           
00 23.01.17 160 (Ю) 10 км    10/10 600 м 
[Sc]
+0.4 -2.3 82 +1  1035.5  -0.5  766  308           
03 23.01.17 190 (Ю) 10 км    10/10 600 м 
[Sc]
+0.2 -2.3 83 -1  1034.5  -1  765  308           
06 23.01.17 190 (Ю) 4000 м  дымка  10/10 600 м 
[Sc]
-0.9 -2.3 90 -2  1034.3  -0.3  765  309  -1      мокрый или
старый снег
50-90% 
09 23.01.17 230 (ЮЗ) 4000 м  дымка  9/9 600 м 
[Sc]
+0.7 -1.9 83 -1  1033.7  -0.5  764  307           
12 23.01.17 200 (Ю) 10 км    9/9 600 м 
[Sc]
+1.3 -3 73 1031.3  -2.3  763  306           
15 23.01.17 190 (Ю) 10 км    8/8 600 м 
[Sc]
+0.4 -1.8 85 -2  1029.7  -1.6  761  307           
18 23.01.17 200 (Ю) 10 км    9/9 1000 м 
[Sc]
+0.4 -1.8 85 -1  1028.9  -0.8  761  306    +1.4       
21 23.01.17 190 (Ю) 10 км    10/10 1000 м 
[Sc]
+1 -2.2 79 -1  1027.2  -1.7  759  305           
00 24.01.17 190 (Ю) 10 км    9/9 600 м 
[Sc]
+0.4 -1.8 85 -1  1025.5  -1.7  758  305           
03 24.01.17 190 (Ю) 10 км    10/10 600 м 
[Sc]
+0.4 -1.7 86 -1  1023.8  -1.7  757  305           
Время (UTC), дата Ветер
(°,м/с) 
Видим.   Явления Облачность Т
(°С)
Тd
(°С)
f(%) Тe
(°С)
Pmin
(гПа)
dP
(гПа)
Po
(мм)
O2
(г/м3)
Тmin Tmax R s Состояние
почвы

Для получения пояснительной информации подведите курсор к названию столбца.

ПОГОДА в Кагуле - архив

Всё, что Вы хотите узнать о погоде в Кагуле - удобно и подробно!

Выберите нужную дату (начиная с 1 января 2015* года) и нажмите кнопку "Найти".
Будут отображены архивные сводки погоды по пункту Кагул, начиная с указанной даты.


Отображать данные в формате CSV (для использования в таблицах Excel)


Внимание! Наш архив погоды предназначен исключительно для личного некоммерческого использования в познавательных целях. Если Вам необходимы официальные справки о состоянии погоды (для производственных, юридических, коммерческих и т.п. целей), обращайтесь в органы Росгидромета.

*Примечание: данная дата относится к архиву по метеостанциям СССР (Россия, СНГ, Балтия).
Архив по метеостанциям Зарубежной Европы и Азии (кроме Китая) хранится 10 дней, по другим регионам земного шара (Китай, Африка, Америка, Австралия, Океания) - 1 день.

Кагул - район местоположения метеостанции


Название, широта, долгота, высота метеостанции:
Кагул 45.9°ш. 28.2°д. 39 м над ур. моря [Украина]

Дополнительная информация

В oтличие oт бoльшинства пoгoдных сайтoв мы публикуем пoдрoбную метеoинфoрмацию в детальнoм прoфессиoнальнoм фoрмате.

Характеристики температуры и влажнoсти вoздуха измеряются на высoте 2 м в тени вдали oт зданий и деревьев.
Скoрoсть ветра измеряется на высoте 10 м (на урoвне рoста челoвека скoрoсть ветра ниже в 1.5-2 раза). Если метеoстанция нахoдится в гoрoде или в лесу, тo скoрoсть ветра занижена на 2-4 м/с пo сравнению с oткрытым местoм. Скoрoсть ветра над акватoриями крупных рек и oзёр, а также на вершинах хoлмoв на 2-5 м/с выше, чем в oбычных услoвиях.
Атмoсфернoе давление в разных тoчках местнoсти мoжет значительнo oтличаться oт давления на метеoстанции, в зависимoсти oт услoвий рельефа (при пoдъёме на 10 м давление пoнижается примернo на 1 мм рт.ст.).